{"data":{"norad_id":68991,"intl_designator":"2026-100M","name":"YAM-11","alt_names":[],"object_type":"PAYLOAD","status":"ACTIVE","operator":null,"country":"US","launch_date":"2026-05-03","launch_site_code":"AFWTR","launch_vehicle":null,"mission":null,"orbit_class":"UNKNOWN","rcs_meters":null,"size_class":null,"mass_kg":null,"dimensions":null,"purposes":[],"wikipedia_slug":null,"has_3d_model":false,"image_url":null,"decayed_at":null,"tle_current":{"epoch":"2026-09-19T23:33:34.195392Z","epoch_age_seconds":64222,"freshness":"FRESH","line1":"1 68991U 26100M   26262.98164578  .00000906  00000+0  98689-4 0  9996","line2":"2 68991  97.7728 158.7136 0001953  79.5997 280.5441 14.90414192 20810","mean_motion":14.90414192,"eccentricity":0.0001953,"inclination_deg":97.7728,"raan_deg":158.7136,"arg_perigee_deg":79.5997,"mean_anomaly_deg":280.5441,"bstar":9.8689e-5,"rev_number":2081,"period_min":96.617437470026,"perigee_km":595.28097870678,"apogee_km":598.00532783464,"semimajor_km":6974.7801532707,"source":"CELESTRAK","updated_at":"2026-09-20T09:00:24.601633Z"}}}